Weather History for Dothan, AL

Change the Weather History Date:

Friday, March 29, 2013

  Actual Average Record
Temperature  
Mean Temperature 57 °F 61 °F  
Max Temperature 73 °F 74 °F 89 °F (2007)
Min Temperature 41 °F 49 °F 30 °F (1955)
Degree Days  
Heating Degree Days 8 5  
Month to date heating degree days 338 202  
Since 1 July heating degree days 1545 1761  
Cooling Degree Days 0 1  
Month to date cooling degree days 4 28  
Year to date cooling degree days 42 38  
Growing Degree Days 7 (Base 50)    
Moisture  
Dew Point 35 °F    
Average Humidity 46    
Maximum Humidity 82    
Minimum Humidity 23    
Precipitation  
Precipitation 0.00 in 0.25 in 2.63 in (1951)
Month to date precipitation 0.66 5.38  
Year to date precipitation 7.99 14.78  
Sea Level Pressure  
Sea Level Pressure 30.30 in    
Wind  
Wind Speed 5 mph (SW)    
Max Wind Speed 13 mph    
Max Gust Speed -    
Visibility 10 miles    
Events      
T = Trace of Precipitation, MM = Missing Value Source: NWS Daily Summary

Daily Weather History Graph

Daily Weather History Graph

Search for Another Location

Airport:

Trip Planner

Search our weather history database for the weather conditions in past years. The results will help you decide how hot, cold, wet, or windy it might be!

Date:

Astronomy

Mar. 29, 2013 Rise Set
Actual Time 6:33 AM CDT 6:59 PM CDT
Civil Twilight 6:09 AM CDT 7:23 PM CDT
Nautical Twilight 5:41 AM CDT 7:52 PM CDT
Astronomical Twilight 5:12 AM CDT 8:21 PM CDT
Moon 9:45 PM CDT (3/29) 7:53 AM CDT (3/29)
Length of Visible Light 13h 14m
Length of Day
12h 25m
Waning Gibbous, 93% of the Moon is Illuminated
Mar 29
Waning Gibbous
Apr 2
Last Quarter
Apr 10
New
Apr 18
First Quarter
Apr 25
Full

Hourly Weather History & Observations

Time (CDT) Temp. Windchill Dew Point Humidity Pressure Visibility Wind Dir Wind Speed Gust Speed Precip Events Conditions
12:53 AM 51.1 °F - 37.0 °F 59% 30.33 in 10.0 mi WNW 5.8 mph - N/A   Clear
1:53 AM 46.0 °F 43.1 °F 37.9 °F 73% 30.33 in 10.0 mi NNW 5.8 mph - N/A   Clear
2:53 AM 46.0 °F 44.8 °F 36.0 °F 68% 30.32 in 7.0 mi NW 3.5 mph - N/A   Clear
3:53 AM 45.0 °F - 37.0 °F 74% 30.32 in 4.0 mi Calm Calm - N/A   Haze
4:53 AM 42.1 °F - 37.0 °F 82% 30.32 in 9.0 mi Calm Calm - N/A   Clear
5:53 AM 41.0 °F 39.0 °F 36.0 °F 82% 30.33 in 8.0 mi NNE 3.5 mph - N/A   Clear
6:53 AM 43.0 °F - 35.1 °F 74% 30.35 in 10.0 mi Calm Calm - N/A   Clear
7:53 AM 50.0 °F - 37.9 °F 63% 30.36 in 10.0 mi ENE 3.5 mph - N/A   Clear
8:53 AM 57.9 °F - 33.1 °F 39% 30.36 in 10.0 mi East 5.8 mph - N/A   Clear
9:53 AM 62.1 °F - 32.0 °F 32% 30.37 in 10.0 mi ESE 8.1 mph - N/A   Clear
10:53 AM 66.0 °F - 32.0 °F 28% 30.37 in 10.0 mi South 6.9 mph - N/A   Clear
11:53 AM 68.0 °F - 30.0 °F 24% 30.34 in 10.0 mi WSW 6.9 mph - N/A   Clear
12:53 PM 70.0 °F - 30.0 °F 23% 30.31 in 10.0 mi SSE 8.1 mph - N/A   Clear
1:53 PM 72.0 °F - 32.0 °F 23% 30.27 in 10.0 mi SSW 5.8 mph - N/A   Clear
2:53 PM 72.0 °F - 32.0 °F 23% 30.25 in 10.0 mi SW 4.6 mph - N/A   Clear
3:53 PM 73.0 °F - 33.1 °F 23% 30.23 in 10.0 mi WSW 8.1 mph - N/A   Clear
4:53 PM 73.0 °F - 33.1 °F 23% 30.22 in 10.0 mi SSW 10.4 mph - N/A   Clear
5:53 PM 71.1 °F - 32.0 °F 24% 30.21 in 10.0 mi SW 8.1 mph - N/A   Clear
6:53 PM 66.0 °F - 32.0 °F 28% 30.23 in 10.0 mi SW 11.5 mph - N/A   Clear
7:53 PM 63.0 °F - 32.0 °F 31% 30.24 in 10.0 mi SW 12.7 mph - N/A   Clear
8:53 PM 60.1 °F - 34.0 °F 38% 30.25 in 10.0 mi SW 8.1 mph - N/A   Clear
9:53 PM 59.0 °F - 36.0 °F 42% 30.27 in 10.0 mi SW 6.9 mph - N/A   Overcast
10:53 PM 57.0 °F - 39.9 °F 53% 30.27 in 10.0 mi SW 6.9 mph - N/A   Mostly Cloudy
11:53 PM 55.0 °F - 43.0 °F 64% 30.27 in 10.0 mi SW 4.6 mph - N/A   Mostly Cloudy